CAT,Max TemperatureF,Mean TemperatureF,Min TemperatureF,Max Dew PointF,MeanDew PointF,Min DewpointF,Max Humidity, Mean Humidity, Min Humidity, Max Sea Level PressureIn, Mean Sea Level PressureIn, Min Sea Level PressureIn, Max VisibilityMiles, Mean VisibilityMiles, Min VisibilityMiles, Max Wind SpeedMPH, Mean Wind SpeedMPH, Max Gust SpeedMPH,PrecipitationIn, CloudCover, Events, WindDirDegrees
2013-1-1,85,74,64,70,67,64,100,76,51,30.06,30.00,29.92,16,9,6,12,7,,0.00,5,Thunderstorm,339
2013-1-2,76,71,66,68,66,64,100,84,60,30.09,30.01,29.77,16,7,1,12,8,,0.00,6,Rain-Thunderstorm,114
2013-1-3,84,74,64,66,64,61,100,72,44,30.06,30.01,29.92,19,8,6,9,6,,0.00,4,Rain,117
2013-1-4,84,75,66,68,66,63,94,68,47,30.04,29.99,29.95,19,8,6,15,6,,0.00,5,Thunderstorm,71
2013-1-5,72,68,64,65,64,61,100,90,78,30.09,30.05,30.01,19,7,2,20,16,,0.00,6,Rain,106
2013-1-6,70,66,62,68,64,61,94,91,83,30.12,30.09,30.06,12,6,2,16,12,,0.00,6,Rain,110
2013-1-7,84,74,64,65,63,60,94,66,36,30.15,30.10,29.98,19,9,6,20,12,,0.00,5,,107
2013-1-8,82,72,63,63,60,57,88,62,45,30.18,30.13,30.06,19,7,6,16,11,,0.00,4,,115
2013-1-9,89,75,61,61,57,50,88,49,27,30.12,30.05,29.95,19,9,6,8,5,,0.00,2,,116
2013-1-10,87,76,66,66,62,57,88,64,30,30.06,30.00,29.92,19,8,6,9,5,,0.00,4,Thunderstorm,301
2013-1-11,86,75,66,64,61,57,83,57,33,30.01,29.96,29.89,16,10,6,10,7,,0.00,4,Thunderstorm,235
2013-1-12,84,75,66,65,64,62,88,67,39,30.01,29.97,29.89,19,9,6,12,7,,0.00,6,,157
2013-1-13,76,70,64,65,63,62,94,76,61,30.04,29.99,29.95,16,7,3,12,9,,0.00,6,Rain,149
2013-1-14,78,71,64,68,66,64,100,86,62,29.98,29.96,29.92,16,7,4,9,6,,0.00,5,Rain,161
2013-1-15,68,67,66,68,67,67,100,100,99,30.01,30.00,29.98,6,6,5,13,11,,0.00,7,Rain,45
2013-1-16,74,70,65,66,65,64,96,84,68,30.15,30.11,30.09,9,7,6,20,14,,0.00,5,Rain,27
2013-1-17,81,74,66,68,66,64,94,84,46,30.18,30.12,30.06,19,8,6,12,8,,0.00,5,Rain-Thunderstorm,84
2013-1-18,68,64,65,66,65,64,100,97,90,30.12,30.11,30.09,16,16,16,7,7,,0.00,,,65
2013-1-19,82,74,65,66,66,65,74,61,48,30.01,29.97,29.92,19,12,6,13,11,,0.00,6,Thunderstorm,345
2013-1-20,71,67,66,70,68,67,100,98,94,29.86,29.84,29.83,6,5,2,18,14,,0.00,8,Rain,347
2013-1-21,80,72,63,64,63,63,100,75,46,30.01,29.97,29.95,19,10,6,10,4,,0.00,6,,278
2013-1-22,77,68,63,61,59,57,88,67,50,30.12,30.08,30.06,16,9,6,16,13,,0.00,5,,128
2013-1-23,81,68,57,57,56,55,94,60,32,30.15,30.13,30.12,19,13,6,12,9,,0.00,1,,113
2013-1-24,85,72,59,59,55,50,88,50,21,30.15,30.13,30.09,19,14,6,14,9,,0.00,2,,95
2013-1-25,82,64,57,59,54,46,64,48,28,30.12,30.12,30.12,16,11,6,4,4,,0.00,1,,125
2013-1-26,77,,77,57,57,57,50,50,50,30.18,30.18,30.18,6,6,6,16,16,,0.00,1,,100
2013-1-27,86,74,62,57,55,54,82,45,25,30.15,30.12,30.09,19,14,6,10,10,,0.00,3,,140
2013-1-28,86,74,61,60,56,53,94,54,23,30.24,30.18,30.15,19,14,6,15,9,,0.00,6,,125
2013-1-29,83,73,63,63,60,57,94,64,31,30.21,30.19,30.15,16,9,6,17,13,,0.00,5,,120
2013-1-30,83,82,82,55,54,52,39,34,28,30.09,30.07,30.06,16,11,6,8,7,,0.00,3,,135
2013-1-31,88,74,59,60,55,52,88,46,19,30.06,30.05,30.04,19,15,6,13,8,,0.00,1,,120